Year,Month,Day,Hour,Minute,Value (Times are PST for temperature in C)
2011,08,20,00,00,15.10
2011,08,20,00,01,15.10
2011,08,20,00,02,15.10
2011,08,20,00,03,15.10
2011,08,20,00,04,15.10
2011,08,20,00,05,15.10
2011,08,20,00,06,15.10
2011,08,20,00,07,15.10
2011,08,20,00,08,15.20
2011,08,20,00,09,15.20
2011,08,20,00,10,15.20
2011,08,20,00,11,15.20
2011,08,20,00,12,15.10
2011,08,20,00,13,15.10
2011,08,20,00,14,15.10
2011,08,20,00,15,15.10
2011,08,20,00,16,15.10
2011,08,20,00,17,15.10
2011,08,20,00,18,15.10
2011,08,20,00,19,15.10
2011,08,20,00,20,15.10
2011,08,20,00,21,15.20
2011,08,20,00,22,15.20
2011,08,20,00,23,15.20
2011,08,20,00,24,15.20
2011,08,20,00,25,15.20
2011,08,20,00,26,15.20
2011,08,20,00,27,15.20
2011,08,20,00,28,15.20
2011,08,20,00,29,15.20
2011,08,20,00,30,15.20
2011,08,20,00,31,15.20
2011,08,20,00,32,15.20
2011,08,20,00,33,15.20
2011,08,20,00,34,15.20
2011,08,20,00,35,15.20
2011,08,20,00,36,15.20
2011,08,20,00,37,15.10
2011,08,20,00,38,15.10
2011,08,20,00,39,15.10
2011,08,20,00,40,15.10
2011,08,20,00,41,15.10
2011,08,20,00,42,15.00
2011,08,20,00,43,15.00
2011,08,20,00,44,15.00
2011,08,20,00,45,15.00
2011,08,20,00,46,15.00
2011,08,20,00,47,15.00
2011,08,20,00,48,15.00
2011,08,20,00,49,15.00
2011,08,20,00,50,15.00
2011,08,20,00,51,15.00
2011,08,20,00,52,15.00
2011,08,20,00,53,15.00
2011,08,20,00,54,15.00
2011,08,20,00,55,15.00
2011,08,20,00,56,15.00
2011,08,20,00,57,15.00
2011,08,20,00,58,15.00
2011,08,20,00,59,15.00
2011,08,20,01,00,15.10
2011,08,20,01,01,15.10
2011,08,20,01,02,15.10
2011,08,20,01,03,15.00
2011,08,20,01,04,15.00
2011,08,20,01,05,15.00
2011,08,20,01,06,15.00
2011,08,20,01,07,15.00
2011,08,20,01,08,15.00
2011,08,20,01,09,15.00
2011,08,20,01,10,14.90
2011,08,20,01,11,14.90
2011,08,20,01,12,14.90
2011,08,20,01,13,14.90
2011,08,20,01,14,14.90
2011,08,20,01,15,14.90
2011,08,20,01,16,14.80
2011,08,20,01,17,14.80
2011,08,20,01,18,14.80
2011,08,20,01,19,14.80
2011,08,20,01,20,14.80
2011,08,20,01,21,14.70
2011,08,20,01,22,14.70
2011,08,20,01,23,14.70
2011,08,20,01,24,14.70
2011,08,20,01,25,14.70
2011,08,20,01,26,14.70
2011,08,20,01,27,14.70
2011,08,20,01,28,14.70
2011,08,20,01,29,14.70
2011,08,20,01,30,14.80
2011,08,20,01,31,14.80
2011,08,20,01,32,14.80
2011,08,20,01,33,14.80
2011,08,20,01,34,14.80
2011,08,20,01,35,14.80
2011,08,20,01,36,14.80
2011,08,20,01,37,14.70
2011,08,20,01,38,14.70
2011,08,20,01,39,14.70
2011,08,20,01,40,14.70
2011,08,20,01,41,14.70
2011,08,20,01,42,14.70
2011,08,20,01,43,14.70
2011,08,20,01,44,14.70
2011,08,20,01,45,14.80
2011,08,20,01,46,14.80
2011,08,20,01,47,14.80
2011,08,20,01,48,14.80
2011,08,20,01,49,14.80
2011,08,20,01,50,14.80
2011,08,20,01,51,14.80
2011,08,20,01,52,14.80
2011,08,20,01,53,14.80
2011,08,20,01,54,14.80
2011,08,20,01,55,14.80
2011,08,20,01,56,14.80
2011,08,20,01,57,14.80
2011,08,20,01,58,14.80
2011,08,20,01,59,14.80
2011,08,20,02,00,14.80
2011,08,20,02,01,14.80
2011,08,20,02,02,14.80
2011,08,20,02,03,14.80
2011,08,20,02,04,14.80
2011,08,20,02,05,14.80
2011,08,20,02,06,14.70
2011,08,20,02,07,14.70
2011,08,20,02,08,14.80
2011,08,20,02,09,14.80
2011,08,20,02,10,14.80
2011,08,20,02,11,14.80
2011,08,20,02,12,14.80
2011,08,20,02,13,14.80
2011,08,20,02,14,14.80
2011,08,20,02,15,14.80
2011,08,20,02,16,14.80
2011,08,20,02,17,14.80
2011,08,20,02,18,14.80
2011,08,20,02,19,14.80
2011,08,20,02,20,14.70
2011,08,20,02,21,14.70
2011,08,20,02,22,14.60
2011,08,20,02,23,14.60
2011,08,20,02,24,14.50
2011,08,20,02,25,14.50
2011,08,20,02,26,14.40
2011,08,20,02,27,14.30
2011,08,20,02,28,14.30
2011,08,20,02,29,14.20
2011,08,20,02,30,14.20
2011,08,20,02,31,14.20
2011,08,20,02,32,14.10
2011,08,20,02,33,14.10
2011,08,20,02,34,14.10
2011,08,20,02,35,14.10
2011,08,20,02,36,14.10
2011,08,20,02,37,14.10
2011,08,20,02,38,14.10
2011,08,20,02,39,14.10
2011,08,20,02,40,14.10
2011,08,20,02,41,14.20
2011,08,20,02,42,14.20
2011,08,20,02,43,14.20
2011,08,20,02,44,14.20
2011,08,20,02,45,14.30
2011,08,20,02,46,14.30
2011,08,20,02,47,14.30
2011,08,20,02,48,14.40
2011,08,20,02,49,14.40
2011,08,20,02,50,14.50
2011,08,20,02,51,14.50
2011,08,20,02,52,14.60
2011,08,20,02,53,14.60
2011,08,20,02,54,14.70
2011,08,20,02,55,14.70
2011,08,20,02,56,14.70
2011,08,20,02,57,14.80
2011,08,20,02,58,14.80
2011,08,20,02,59,14.80
2011,08,20,03,00,14.80
2011,08,20,03,01,14.80
2011,08,20,03,02,14.90
2011,08,20,03,28,14.90
2011,08,20,03,29,14.90
2011,08,20,03,30,14.90
2011,08,20,03,31,14.90
2011,08,20,03,32,15.00
2011,08,20,03,33,15.00
2011,08,20,03,34,15.00
2011,08,20,03,35,15.10
2011,08,20,03,36,15.10
2011,08,20,03,37,15.10
2011,08,20,03,38,15.10
2011,08,20,03,39,15.20
2011,08,20,03,40,15.20
2011,08,20,03,41,15.20
2011,08,20,03,42,15.30
2011,08,20,03,43,15.30
2011,08,20,03,44,15.30
2011,08,20,03,45,15.40
2011,08,20,03,46,15.40
2011,08,20,03,47,15.50
2011,08,20,03,48,15.50
2011,08,20,03,49,15.50
2011,08,20,03,50,15.60
2011,08,20,03,51,15.60
2011,08,20,03,52,15.70
2011,08,20,03,53,15.70
2011,08,20,03,54,15.70
2011,08,20,03,55,15.70
2011,08,20,03,56,15.70
2011,08,20,03,57,15.80
2011,08,20,03,58,15.80
2011,08,20,03,59,15.70
2011,08,20,04,00,15.50
2011,08,20,04,01,15.50
2011,08,20,04,02,15.40
2011,08,20,04,03,15.40
2011,08,20,04,04,15.40
2011,08,20,04,05,15.30
2011,08,20,04,06,15.30
2011,08,20,04,07,15.30
2011,08,20,04,08,15.30
2011,08,20,04,09,15.20
2011,08,20,04,10,15.20
2011,08,20,04,11,15.10
2011,08,20,04,12,15.00
2011,08,20,04,13,14.90
2011,08,20,04,14,14.80
2011,08,20,04,15,14.70
2011,08,20,04,16,14.60
2011,08,20,04,17,14.50
2011,08,20,04,18,14.40
2011,08,20,04,19,14.30
2011,08,20,04,20,14.30
2011,08,20,04,21,14.20
2011,08,20,04,22,14.20
2011,08,20,04,23,14.10
2011,08,20,04,24,14.10
2011,08,20,04,25,14.00
2011,08,20,04,26,13.90
2011,08,20,04,27,13.90
2011,08,20,04,28,13.80
2011,08,20,04,29,13.80
2011,08,20,04,30,13.70
2011,08,20,04,31,13.70
2011,08,20,04,32,13.60
2011,08,20,04,33,13.50
2011,08,20,04,34,13.50
2011,08,20,04,35,13.40
2011,08,20,04,36,13.40
2011,08,20,04,37,13.30
2011,08,20,04,38,13.30
2011,08,20,04,39,13.30
2011,08,20,04,40,13.30
2011,08,20,04,41,13.30
2011,08,20,04,42,13.30
2011,08,20,04,43,13.30
2011,08,20,04,44,13.30
2011,08,20,04,45,13.30
2011,08,20,04,46,13.20
2011,08,20,04,47,13.20
2011,08,20,04,48,13.20
2011,08,20,04,49,13.10
2011,08,20,04,50,13.10
2011,08,20,04,51,13.10
2011,08,20,04,52,13.00
2011,08,20,04,53,13.00
2011,08,20,04,54,12.90
2011,08,20,04,55,12.90
2011,08,20,04,56,12.90
2011,08,20,04,57,12.90
2011,08,20,04,58,12.90
2011,08,20,04,59,12.90
2011,08,20,05,00,12.90
2011,08,20,05,01,12.80
2011,08,20,05,02,12.80
2011,08,20,05,03,12.80
2011,08,20,05,04,12.80
2011,08,20,05,05,12.70
2011,08,20,05,06,12.70
2011,08,20,05,07,12.70
2011,08,20,05,08,12.70
2011,08,20,05,09,12.70
2011,08,20,05,10,12.70
2011,08,20,05,11,12.70
2011,08,20,05,12,12.70
2011,08,20,05,13,12.60
2011,08,20,05,14,12.60
2011,08,20,05,15,12.60
2011,08,20,05,16,12.60
2011,08,20,05,17,12.60
2011,08,20,05,18,12.60
2011,08,20,05,19,12.60
2011,08,20,05,20,12.60
2011,08,20,05,21,12.60
2011,08,20,05,22,12.60
2011,08,20,05,23,12.60
2011,08,20,05,24,12.60
2011,08,20,05,25,12.60
2011,08,20,05,26,12.60
2011,08,20,05,27,12.70
2011,08,20,05,28,12.70
2011,08,20,05,29,12.70
2011,08,20,05,30,12.70
2011,08,20,05,31,12.70
2011,08,20,05,32,12.80
2011,08,20,05,33,12.80
2011,08,20,05,34,12.90
2011,08,20,05,35,12.90
2011,08,20,05,36,13.00
2011,08,20,05,37,13.10
2011,08,20,05,38,13.20
2011,08,20,05,39,13.30
2011,08,20,05,40,13.30
2011,08,20,05,41,13.40
2011,08,20,05,42,13.50
2011,08,20,05,43,13.50
2011,08,20,05,44,13.60
2011,08,20,05,45,13.70
2011,08,20,05,46,13.80
2011,08,20,05,47,13.80
2011,08,20,05,48,13.80
2011,08,20,05,49,13.80
2011,08,20,05,50,13.80
2011,08,20,05,51,13.70
2011,08,20,05,52,13.70
2011,08,20,05,53,13.70
2011,08,20,05,54,13.70
2011,08,20,05,55,13.70
2011,08,20,05,56,13.70
2011,08,20,05,57,13.70
2011,08,20,05,58,13.80
2011,08,20,05,59,13.80
2011,08,20,06,00,13.80
2011,08,20,06,01,13.80
2011,08,20,06,02,13.80
2011,08,20,06,03,13.80
2011,08,20,06,04,13.80
2011,08,20,06,05,13.90
2011,08,20,06,06,14.00
2011,08,20,06,07,14.00
2011,08,20,06,08,14.10
2011,08,20,06,09,14.00
2011,08,20,06,10,14.00
2011,08,20,06,11,14.00
2011,08,20,06,12,14.00
2011,08,20,06,13,14.00
2011,08,20,06,14,14.10
2011,08,20,06,15,14.10
2011,08,20,06,16,14.10
2011,08,20,06,17,14.20
2011,08,20,06,18,14.20
2011,08,20,06,19,14.30
2011,08,20,06,20,14.40
2011,08,20,06,21,14.40
2011,08,20,06,22,14.50
2011,08,20,06,23,14.60
2011,08,20,06,24,14.60
2011,08,20,06,25,14.70
2011,08,20,06,26,14.70
2011,08,20,06,27,14.70
2011,08,20,06,28,14.70
2011,08,20,06,29,14.70
2011,08,20,06,30,14.70
2011,08,20,06,31,14.70
2011,08,20,06,32,14.80
2011,08,20,06,33,14.80
2011,08,20,06,34,14.80
2011,08,20,06,35,14.90
2011,08,20,06,36,14.90
2011,08,20,06,37,14.90
2011,08,20,06,38,14.90
2011,08,20,06,39,14.90
2011,08,20,06,40,15.00
2011,08,20,06,41,15.10
2011,08,20,06,42,15.10
2011,08,20,06,43,15.10
2011,08,20,06,44,15.20
2011,08,20,06,45,15.20
2011,08,20,06,46,15.20
2011,08,20,06,47,15.20
2011,08,20,06,48,15.30
2011,08,20,06,49,15.30
2011,08,20,06,50,15.30
2011,08,20,06,51,15.30
2011,08,20,06,52,15.30
2011,08,20,06,53,15.30
2011,08,20,06,54,15.30
2011,08,20,06,55,15.30
2011,08,20,06,56,15.40
2011,08,20,06,57,15.40
2011,08,20,06,58,15.40
2011,08,20,06,59,15.50
2011,08,20,07,00,15.60
2011,08,20,07,01,15.60
2011,08,20,07,02,15.60
2011,08,20,07,03,15.70
2011,08,20,07,04,15.70
2011,08,20,07,05,15.70
2011,08,20,07,06,15.70
2011,08,20,07,07,15.80
2011,08,20,07,08,15.80
2011,08,20,07,09,15.80
2011,08,20,07,10,15.80
2011,08,20,07,11,15.80
2011,08,20,07,12,15.80
2011,08,20,07,13,15.80
2011,08,20,07,14,15.90
2011,08,20,07,15,15.90
2011,08,20,07,16,16.00
2011,08,20,07,17,16.00
2011,08,20,07,18,16.10
2011,08,20,07,19,16.20
2011,08,20,07,20,16.20
2011,08,20,07,21,16.30
2011,08,20,07,22,16.30
2011,08,20,07,23,16.40
2011,08,20,07,24,16.40
2011,08,20,07,25,16.50
2011,08,20,07,26,16.60
2011,08,20,07,27,16.60
2011,08,20,07,28,16.70
2011,08,20,07,29,16.70
2011,08,20,07,30,16.70
2011,08,20,07,31,16.70
2011,08,20,07,32,16.70
2011,08,20,07,33,16.80
2011,08,20,07,34,16.80
2011,08,20,07,35,16.80
2011,08,20,07,36,16.90
2011,08,20,07,37,16.90
2011,08,20,07,38,17.00
2011,08,20,07,39,17.00
2011,08,20,07,40,17.10
2011,08,20,07,41,17.10
2011,08,20,07,42,17.20
2011,08,20,07,43,17.20
2011,08,20,07,44,17.20
2011,08,20,07,45,17.20
2011,08,20,07,46,17.20
2011,08,20,07,47,17.30
2011,08,20,07,48,17.30
2011,08,20,07,49,17.20
2011,08,20,07,50,17.20
2011,08,20,07,51,17.20
2011,08,20,07,52,17.30
2011,08,20,07,53,17.30
2011,08,20,07,54,17.40
2011,08,20,07,55,17.40
2011,08,20,07,56,17.40
2011,08,20,07,57,17.50
2011,08,20,07,58,17.50
2011,08,20,07,59,17.60
2011,08,20,08,00,17.60
2011,08,20,08,01,17.70
2011,08,20,08,02,17.70
2011,08,20,08,03,17.80
2011,08,20,08,04,17.80
2011,08,20,08,05,17.80
2011,08,20,08,06,17.80
2011,08,20,08,07,17.80
2011,08,20,08,08,17.80
2011,08,20,08,09,17.80
2011,08,20,08,10,17.80
2011,08,20,08,11,17.80
2011,08,20,08,12,17.80
2011,08,20,08,13,17.80
2011,08,20,08,14,17.90
2011,08,20,08,15,17.90
2011,08,20,08,16,18.00
2011,08,20,08,17,18.10
2011,08,20,08,18,18.10
2011,08,20,08,19,18.20
2011,08,20,08,20,18.20
2011,08,20,08,21,18.20
2011,08,20,08,22,18.20
2011,08,20,08,23,18.20
2011,08,20,08,24,18.20
2011,08,20,08,25,18.30
2011,08,20,08,26,18.30
2011,08,20,08,27,18.40
2011,08,20,08,28,18.40
2011,08,20,08,29,18.50
2011,08,20,08,30,18.60
2011,08,20,08,31,18.70
2011,08,20,08,32,18.80
2011,08,20,08,33,18.90
2011,08,20,08,34,18.90
2011,08,20,08,35,19.00
2011,08,20,08,36,19.10
2011,08,20,08,37,19.10
2011,08,20,08,38,19.20
2011,08,20,08,39,19.20
2011,08,20,08,40,19.30
2011,08,20,08,41,19.30
2011,08,20,08,42,19.30
2011,08,20,08,43,19.30
2011,08,20,08,44,19.40
2011,08,20,08,45,19.40
2011,08,20,08,46,19.50
2011,08,20,08,47,19.50
2011,08,20,08,48,19.60
2011,08,20,08,49,19.70
2011,08,20,08,50,19.70
2011,08,20,08,51,19.70
2011,08,20,08,52,19.70
2011,08,20,08,53,19.80
2011,08,20,08,54,19.80
2011,08,20,08,55,19.90
2011,08,20,08,56,19.90
2011,08,20,08,57,19.80
2011,08,20,08,58,19.80
2011,08,20,08,59,19.80
2011,08,20,09,00,19.90
2011,08,20,09,01,19.90
2011,08,20,09,02,19.90
2011,08,20,09,03,19.90
2011,08,20,09,04,19.90
2011,08,20,09,05,19.80
2011,08,20,09,06,19.80
2011,08,20,09,07,19.80
2011,08,20,09,08,19.80
2011,08,20,09,09,19.70
2011,08,20,09,10,19.80
2011,08,20,09,11,19.80
2011,08,20,09,12,19.90
2011,08,20,09,13,19.90
2011,08,20,09,14,19.90
2011,08,20,09,15,20.00
2011,08,20,09,16,19.90
2011,08,20,09,17,20.00
2011,08,20,09,18,20.00
2011,08,20,09,19,20.10
2011,08,20,09,20,20.10
2011,08,20,09,21,20.20
2011,08,20,09,22,20.20
2011,08,20,09,23,20.20
2011,08,20,09,24,20.20
2011,08,20,09,25,20.20
2011,08,20,09,26,20.20
2011,08,20,09,27,20.10
2011,08,20,09,28,20.10
2011,08,20,09,29,20.10
2011,08,20,09,30,20.10
2011,08,20,09,31,20.10
2011,08,20,09,32,20.00
2011,08,20,09,33,20.00
2011,08,20,09,34,19.90
2011,08,20,09,35,19.90
2011,08,20,09,36,19.90
2011,08,20,09,37,20.00
2011,08,20,09,38,20.10
2011,08,20,09,39,20.20
2011,08,20,09,40,20.30
2011,08,20,09,41,20.30
2011,08,20,09,42,20.30
2011,08,20,09,43,20.40
2011,08,20,09,44,20.40
2011,08,20,09,45,20.40
2011,08,20,09,46,20.40
2011,08,20,09,47,20.50
2011,08,20,09,48,20.40
2011,08,20,09,49,20.40
2011,08,20,09,50,20.40
2011,08,20,09,51,20.40
2011,08,20,09,52,20.50
2011,08,20,09,53,20.50
2011,08,20,09,54,20.60
2011,08,20,09,55,20.60
2011,08,20,09,56,20.60
2011,08,20,09,57,20.60
2011,08,20,09,58,20.60
2011,08,20,09,59,20.60
2011,08,20,10,00,20.60
2011,08,20,10,01,20.60
2011,08,20,10,02,20.60
2011,08,20,10,03,20.60
2011,08,20,10,04,20.60
2011,08,20,10,05,20.60
2011,08,20,10,06,20.70
2011,08,20,10,07,20.80
2011,08,20,10,08,20.80
2011,08,20,10,09,21.00
2011,08,20,10,10,21.10
2011,08,20,10,11,21.20
2011,08,20,10,12,21.30
2011,08,20,10,13,21.30
2011,08,20,10,14,21.30
2011,08,20,10,15,21.30
2011,08,20,10,16,21.20
2011,08,20,10,17,21.10
2011,08,20,10,18,21.10
2011,08,20,10,19,21.10
2011,08,20,10,20,21.10
2011,08,20,10,21,21.20
2011,08,20,10,22,21.20
2011,08,20,10,23,21.20
2011,08,20,10,24,21.20
2011,08,20,10,25,21.20
2011,08,20,10,26,21.20
2011,08,20,10,27,21.20
2011,08,20,10,28,21.30
2011,08,20,10,29,21.30
2011,08,20,10,30,21.30
2011,08,20,10,31,21.40
2011,08,20,10,32,21.50
2011,08,20,10,33,21.50
2011,08,20,10,34,21.60
2011,08,20,10,35,21.50
2011,08,20,10,36,21.50
2011,08,20,10,37,21.50
2011,08,20,10,38,21.50
2011,08,20,10,39,21.50
2011,08,20,10,40,21.40
2011,08,20,10,41,21.40
2011,08,20,10,42,21.30
2011,08,20,10,43,21.30
2011,08,20,10,44,21.30
2011,08,20,10,45,21.30
2011,08,20,10,46,21.40
2011,08,20,10,47,21.40
2011,08,20,10,48,21.50
2011,08,20,10,49,21.60
2011,08,20,10,50,21.70
2011,08,20,10,51,21.70
2011,08,20,10,52,21.80
2011,08,20,10,53,21.80
2011,08,20,10,54,21.80
2011,08,20,10,55,21.70
2011,08,20,10,56,21.70
2011,08,20,10,57,21.80
2011,08,20,10,58,21.80
2011,08,20,10,59,21.70
2011,08,20,11,00,21.70
2011,08,20,11,01,21.70
2011,08,20,11,02,21.60
2011,08,20,11,03,21.60
2011,08,20,11,04,21.50
2011,08,20,11,05,21.50
2011,08,20,11,06,21.60
2011,08,20,11,07,21.60
2011,08,20,11,08,21.60
2011,08,20,11,09,21.60
2011,08,20,11,10,21.50
2011,08,20,11,11,21.50
2011,08,20,11,12,21.50
2011,08,20,11,13,21.50
2011,08,20,11,14,21.40
2011,08,20,11,15,21.30
2011,08,20,11,16,21.20
2011,08,20,11,17,21.10
2011,08,20,11,18,21.10
2011,08,20,11,19,21.10
2011,08,20,11,20,21.00
2011,08,20,11,21,21.00
2011,08,20,11,22,20.90
2011,08,20,11,23,20.90
2011,08,20,11,24,21.00
2011,08,20,11,25,21.00
2011,08,20,11,26,21.00
2011,08,20,11,27,21.10
2011,08,20,11,28,21.10
2011,08,20,11,29,21.10
2011,08,20,11,30,21.10
2011,08,20,11,31,21.10
2011,08,20,11,32,21.10
2011,08,20,11,33,21.10
2011,08,20,11,34,21.10
2011,08,20,11,35,21.10
2011,08,20,11,36,21.00
2011,08,20,11,37,20.90
2011,08,20,11,38,20.80
2011,08,20,11,39,20.80
2011,08,20,11,40,20.80
2011,08,20,11,41,20.80
2011,08,20,11,42,20.80
2011,08,20,11,43,20.80
2011,08,20,11,44,20.90
2011,08,20,11,45,20.90
2011,08,20,11,46,20.80
2011,08,20,11,47,20.80
2011,08,20,11,48,20.70
2011,08,20,11,49,20.70
2011,08,20,11,50,20.70
2011,08,20,11,51,20.70
2011,08,20,11,52,20.70
2011,08,20,11,53,20.80
2011,08,20,11,54,20.80
2011,08,20,11,55,20.80
2011,08,20,11,56,20.90
2011,08,20,11,57,20.90
2011,08,20,11,58,20.90
2011,08,20,11,59,20.90
2011,08,20,12,00,20.90
2011,08,20,12,01,21.00
2011,08,20,12,02,21.10
2011,08,20,12,03,21.10
2011,08,20,12,04,21.20
2011,08,20,12,05,21.20
2011,08,20,12,06,21.30
2011,08,20,12,07,21.30
2011,08,20,12,08,21.30
2011,08,20,12,09,21.30
2011,08,20,12,10,21.30
2011,08,20,12,11,21.40
2011,08,20,12,12,21.50
2011,08,20,12,13,21.50
2011,08,20,12,14,21.50
2011,08,20,12,15,21.50
2011,08,20,12,16,21.50
2011,08,20,12,17,21.40
2011,08,20,12,18,21.40
2011,08,20,12,19,21.40
2011,08,20,12,20,21.50
2011,08,20,12,21,21.40
2011,08,20,12,22,21.40
2011,08,20,12,23,21.40
2011,08,20,12,24,21.40
2011,08,20,12,25,21.40
2011,08,20,12,26,21.40
2011,08,20,12,27,21.40
2011,08,20,12,28,21.40
2011,08,20,12,29,21.40
2011,08,20,12,30,21.50
2011,08,20,12,31,21.50
2011,08,20,12,32,21.50
2011,08,20,12,33,21.60
2011,08,20,12,34,21.60
2011,08,20,12,35,21.70
2011,08,20,12,36,21.70
2011,08,20,12,37,21.70
2011,08,20,12,38,21.70
2011,08,20,12,39,21.70
2011,08,20,12,40,21.80
2011,08,20,12,41,21.80
2011,08,20,12,42,21.90
2011,08,20,12,43,22.00
2011,08,20,12,44,22.10
2011,08,20,12,45,22.10
2011,08,20,12,46,22.20
2011,08,20,12,47,22.20
2011,08,20,12,48,22.30
2011,08,20,12,49,22.30
2011,08,20,12,50,22.30
2011,08,20,12,51,22.30
2011,08,20,12,52,22.30
2011,08,20,12,53,22.30
2011,08,20,12,54,22.30
2011,08,20,12,55,22.20
2011,08,20,12,56,22.20
2011,08,20,12,57,22.10
2011,08,20,12,58,22.10
2011,08,20,12,59,22.10
2011,08,20,13,00,22.10
2011,08,20,13,01,22.10
2011,08,20,13,02,22.10
2011,08,20,13,03,22.10
2011,08,20,13,04,22.10
2011,08,20,13,05,22.20
2011,08,20,13,06,22.20
2011,08,20,13,07,22.30
2011,08,20,13,08,22.40
2011,08,20,13,09,22.40
2011,08,20,13,10,22.40
2011,08,20,13,11,22.30
2011,08,20,13,12,22.30
2011,08,20,13,13,22.20
2011,08,20,13,14,22.20
2011,08,20,13,15,22.20
2011,08,20,13,16,22.20
2011,08,20,13,17,22.20
2011,08,20,13,18,22.20
2011,08,20,13,19,22.10
2011,08,20,13,20,22.10
2011,08,20,13,21,22.10
2011,08,20,13,22,22.10
2011,08,20,13,23,22.00
2011,08,20,13,24,22.00
2011,08,20,13,25,22.00
2011,08,20,13,26,22.00
2011,08,20,13,27,21.90
2011,08,20,13,28,22.00
2011,08,20,13,29,22.00
2011,08,20,13,30,22.00
2011,08,20,13,31,22.10
2011,08,20,13,32,22.20
2011,08,20,13,33,22.20
2011,08,20,13,34,22.30
2011,08,20,13,35,22.40
2011,08,20,13,36,22.40
2011,08,20,13,37,22.40
2011,08,20,13,38,22.50
2011,08,20,13,39,22.50
2011,08,20,13,40,22.60
2011,08,20,13,41,22.70
2011,08,20,13,42,22.80
2011,08,20,13,43,22.80
2011,08,20,13,44,22.90
2011,08,20,13,45,22.90
2011,08,20,13,46,22.90
2011,08,20,13,47,22.90
2011,08,20,13,48,22.90
2011,08,20,13,49,22.90
2011,08,20,13,50,22.90
2011,08,20,13,51,23.00
2011,08,20,13,52,23.00
2011,08,20,13,53,23.10
2011,08,20,13,54,23.10
2011,08,20,13,55,23.10
2011,08,20,13,56,23.10
2011,08,20,13,57,23.10
2011,08,20,13,58,23.20
2011,08,20,13,59,23.20
2011,08,20,14,00,23.30
2011,08,20,14,01,23.30
2011,08,20,14,02,23.20
2011,08,20,14,03,23.30
2011,08,20,14,04,23.30
2011,08,20,14,05,23.20
2011,08,20,14,06,23.20
2011,08,20,14,07,23.20
2011,08,20,14,08,23.20
2011,08,20,14,09,23.20
2011,08,20,14,10,23.30
2011,08,20,14,11,23.30
2011,08,20,14,12,23.40
2011,08,20,14,13,23.40
2011,08,20,14,14,23.40
2011,08,20,14,15,23.40
2011,08,20,14,16,23.50
2011,08,20,14,17,23.50
2011,08,20,14,18,23.60
2011,08,20,14,19,23.60
2011,08,20,14,20,23.60
2011,08,20,14,21,23.60
2011,08,20,14,22,23.60
2011,08,20,14,23,23.50
2011,08,20,14,24,23.50
2011,08,20,14,25,23.50
2011,08,20,14,26,23.50
2011,08,20,14,27,23.60
2011,08,20,14,28,23.60
2011,08,20,14,29,23.70
2011,08,20,14,30,23.70
2011,08,20,14,31,23.70
2011,08,20,14,32,23.60
2011,08,20,14,33,23.60
2011,08,20,14,34,23.60
2011,08,20,14,35,23.70
2011,08,20,14,36,23.70
2011,08,20,14,37,23.70
2011,08,20,14,38,23.70
2011,08,20,14,39,23.70
2011,08,20,14,40,23.70
2011,08,20,14,41,23.70
2011,08,20,14,42,23.80
2011,08,20,14,43,23.80
2011,08,20,14,44,23.80
2011,08,20,14,45,23.90
2011,08,20,14,46,23.90
2011,08,20,14,47,23.90
2011,08,20,14,48,23.90
2011,08,20,14,49,23.90
2011,08,20,14,50,24.00
2011,08,20,14,51,24.00
2011,08,20,14,52,24.00
2011,08,20,14,53,24.00
2011,08,20,14,54,23.90
2011,08,20,14,55,23.90
2011,08,20,14,56,23.90
2011,08,20,14,57,24.00
2011,08,20,14,58,24.00
2011,08,20,14,59,24.10
2011,08,20,15,00,24.20
2011,08,20,15,01,24.20
2011,08,20,15,02,24.10
2011,08,20,15,03,24.10
2011,08,20,15,04,24.10
2011,08,20,15,05,24.10
2011,08,20,15,06,24.10
2011,08,20,15,07,24.10
2011,08,20,15,08,24.10
2011,08,20,15,09,24.10
2011,08,20,15,10,24.10
2011,08,20,15,11,24.00
2011,08,20,15,12,24.00
2011,08,20,15,13,23.90
2011,08,20,15,14,23.90
2011,08,20,15,15,23.90
2011,08,20,15,16,24.00
2011,08,20,15,17,24.00
2011,08,20,15,18,24.00
2011,08,20,15,19,24.00
2011,08,20,15,20,24.10
2011,08,20,15,21,24.10
2011,08,20,15,22,24.20
2011,08,20,15,23,24.20
2011,08,20,15,24,24.20
2011,08,20,15,25,24.20
2011,08,20,15,26,24.30
2011,08,20,15,27,24.30
2011,08,20,15,28,24.40
2011,08,20,15,29,24.50
2011,08,20,15,30,24.50
2011,08,20,15,31,24.60
2011,08,20,15,32,24.70
2011,08,20,15,33,24.80
2011,08,20,15,34,24.90
2011,08,20,15,35,24.90
2011,08,20,15,36,24.90
2011,08,20,15,37,24.90
2011,08,20,15,38,24.80
2011,08,20,15,39,24.80
2011,08,20,15,40,24.80
2011,08,20,15,41,24.80
2011,08,20,15,42,24.80
2011,08,20,15,43,24.80
2011,08,20,15,44,24.80
2011,08,20,15,45,24.80
2011,08,20,15,46,24.80
2011,08,20,15,47,24.80
2011,08,20,15,48,24.80
2011,08,20,15,49,24.80
2011,08,20,15,50,24.70
2011,08,20,15,51,24.70
2011,08,20,15,52,24.70
2011,08,20,15,53,24.70
2011,08,20,15,54,24.70
2011,08,20,15,55,24.70
2011,08,20,15,56,24.70
2011,08,20,15,57,24.70
2011,08,20,15,58,24.80
2011,08,20,15,59,24.80
2011,08,20,16,00,24.80
2011,08,20,16,01,24.80
2011,08,20,16,02,24.80
2011,08,20,16,03,24.80
2011,08,20,16,04,24.90
2011,08,20,16,05,24.90
2011,08,20,16,06,25.00
2011,08,20,16,07,25.10
2011,08,20,16,08,25.10
2011,08,20,16,09,25.10
2011,08,20,16,10,25.20
2011,08,20,16,11,25.20
2011,08,20,16,12,25.30
2011,08,20,16,13,25.30
2011,08,20,16,14,25.30
2011,08,20,16,15,25.30
2011,08,20,16,16,25.20
2011,08,20,16,17,25.20
2011,08,20,16,18,25.20
2011,08,20,16,19,25.10
2011,08,20,16,20,25.00
2011,08,20,16,21,25.00
2011,08,20,16,22,24.90
2011,08,20,16,23,24.90
2011,08,20,16,24,24.80
2011,08,20,16,25,24.80
2011,08,20,16,26,24.80
2011,08,20,16,27,24.80
2011,08,20,16,28,24.80
2011,08,20,16,29,24.80
2011,08,20,16,30,24.80
2011,08,20,16,31,24.80
2011,08,20,16,32,24.70
2011,08,20,16,33,24.70
2011,08,20,16,34,24.60
2011,08,20,16,35,24.60
2011,08,20,16,36,24.60
2011,08,20,16,37,24.60
2011,08,20,16,38,24.60
2011,08,20,16,39,24.60
2011,08,20,16,40,24.50
2011,08,20,16,41,24.50
2011,08,20,16,42,24.40
2011,08,20,16,43,24.40
2011,08,20,16,44,24.40
2011,08,20,16,45,24.40
2011,08,20,16,46,24.30
2011,08,20,16,47,24.30
2011,08,20,16,48,24.30
2011,08,20,16,49,24.40
2011,08,20,16,50,24.40
2011,08,20,16,51,24.40
2011,08,20,16,52,24.50
2011,08,20,16,53,24.50
2011,08,20,16,54,24.60
2011,08,20,16,55,24.60
2011,08,20,16,56,24.60
2011,08,20,16,57,24.60
2011,08,20,16,58,24.60
2011,08,20,16,59,24.60
2011,08,20,17,00,24.70
2011,08,20,17,01,24.70
2011,08,20,17,02,24.70
2011,08,20,17,03,24.70
2011,08,20,17,04,24.70
2011,08,20,17,05,24.60
2011,08,20,17,06,24.60
2011,08,20,17,07,24.50
2011,08,20,17,08,24.50
2011,08,20,17,09,24.50
2011,08,20,17,10,24.50
2011,08,20,17,11,24.50
2011,08,20,17,12,24.50
2011,08,20,17,13,24.50
2011,08,20,17,14,24.60
2011,08,20,17,15,24.60
2011,08,20,17,16,24.60
2011,08,20,17,17,24.70
2011,08,20,17,18,24.70
2011,08,20,17,19,24.70
2011,08,20,17,20,24.70
2011,08,20,17,21,24.70
2011,08,20,17,22,24.60
2011,08,20,17,23,24.60
2011,08,20,17,24,24.50
2011,08,20,17,25,24.50
2011,08,20,17,26,24.40
2011,08,20,17,27,24.40
2011,08,20,17,28,24.30
2011,08,20,17,29,24.30
2011,08,20,17,30,24.30
2011,08,20,17,31,24.30
2011,08,20,17,32,24.30
2011,08,20,17,33,24.30
2011,08,20,17,34,24.30
2011,08,20,17,35,24.30
2011,08,20,17,36,24.20
2011,08,20,17,37,24.20
2011,08,20,17,38,24.20
2011,08,20,17,39,24.20
2011,08,20,17,40,24.20
2011,08,20,17,41,24.30
2011,08,20,17,42,24.30
2011,08,20,17,43,24.30
2011,08,20,17,44,24.20